This demonstration page uses our WeatherBlox Daily Observations layout. Learn more.

Left ArrowRight Arrow

36.17497, -115.13722

Hourly Observations for July 23, 2021

Temp ( °F °C ) Dew Point ( °F °C ) Humidity (%) Winds ( mph kmh ) Pressure ( in mb ) Visibility ( mi km ) Precip ( " mm )
12:53 am 00:53 Clear 89 31.7 63 17.2 42 42 VRB 3 6 29.89 1012 10 16 0.00 0.00
1:53 am 01:53 Clear 87 30.6 62 16.7 43 43 ENE 5 7 29.90 1013 10 16 0.00 0.00
2:53 am 02:53 Clear 87 30.6 64 17.8 46 46 SE 6 9 29.91 1013 10 16 0.00 0.00
3:53 am 03:53 Clear 86 30 63 17.2 46 46 E 6 9 29.92 1013 10 16 0.00 0.00
4:53 am 04:53 Clear 85 29.4 63 17.2 48 48 SE 3 6 29.93 1014 10 16 0.00 0.00
5:53 am 05:53 Sunny 85 29.4 64 17.8 50 50 Calm 29.95 1014 10 16 0.00 0.00
6:53 am 06:53 Sunny 86 30 64 17.8 48 48 SW 3 6 29.97 1015 10 16 0.00 0.00
7:53 am 07:53 Sunny 88 31.1 64 17.8 45 45 Calm 29.98 1015 10 16 0.00 0.00
8:53 am 08:53 Sunny 91 32.8 64 17.8 41 41 Calm 30.00 1016 10 16 0.00 0.00
9:53 am 09:53 Sunny 93 33.9 62 16.7 36 36 SE 7 11 29.99 1016 10 16 0.00 0.00
10:53 am 10:53 Sunny 95 35 62 16.7 34 34 SE 8 13 29.98 1015 10 16 0.00 0.00
11:53 am 11:53 Sunny 99 37.2 60 15.6 28 28 SSE 10 17 29.96 1015 10 16 0.00 0.00
12:53 pm 12:53 Sunny 102 38.9 59 15 24 24 SE 8 13 29.93 1014 10 16 0.00 0.00
1:53 pm 13:53 Sunny 103 39.4 58 14.4 23 23 VRB 3 6 29.91 1013 10 16 0.00 0.00
2:53 pm 14:53 Sunny 106 41.1 54 12.2 18 18 SSW 16 26 29.88 1012 10 16 0.00 0.00
3:53 pm 15:53 Sunny 105 40.6 53 11.7 18 18 W 15 24 29.85 1011 10 16 0.00 0.00
4:53 pm 16:53 Sunny 104 40 51 10.6 17 17 WSW 6 9 29.84 1011 10 16 0.00 0.00
5:53 pm 17:53 Sunny 103 39.4 50 10 17 17 VRB 3 6 29.83 1010 10 16 0.00 0.00
6:53 pm 18:53 Sunny 104 40 52 11.1 18 18 WSW 7 11 29.83 1010 10 16 0.00 0.00
7:53 pm 19:53 Sunny 102 38.9 50 10 17 17 SW 12 19 29.84 1010 10 16 0.00 0.00
8:53 pm 20:53 Clear 101 38.3 51 10.6 19 19 SSW 8 13 29.85 1011 10 16 0.00 0.00
9:53 pm 21:53 Mostly Clear 94 34.4 59 15 31 31 ENE 20 31 29.90 1013 10 16 0.00 0.00
10:53 pm 22:53 Mostly Cloudy 93 33.9 60 15.6 33 33 NE 21 33 29.93 1014 10 16 0.00 0.00
11:53 pm 23:53 Mostly Clear with Light Rain 90 32.2 62 16.7 39 39 NE 8 13 29.93 1014 10 16 0.00 0.00

Powered by AerisWeather